Date,TemperatureHighF,TemperatureAvgF,TemperatureLowF,DewpointHighF,DewpointAvgF,DewpointLowF,HumidityHigh,HumidityAvg,HumidityLow,PressureMaxIn,PressureMinIn,WindSpeedMaxMPH,WindSpeedAvgMPH,GustSpeedMaxMPH,PrecipitationSumIn
2013-1-1,33,25,13,27,13,2,86,62,44,29.80,29.56,26,11,33,0.00
2013-1-2,21,13,4,7,1,-6,72,59,46,29.98,29.78,22,10,34,0.00
2013-1-3,23,12,3,6,1,-6,81,60,47,30.04,29.88,14,4,17,0.00
2013-1-4,36,23,3,27,17,0,97,78,69,29.87,29.67,13,5,27,0.00
2013-1-5,35,29,13,28,18,10,85,64,46,30.23,29.67,29,9,38,0.00
2013-1-6,32,24,12,28,20,9,87,84,74,30.19,29.87,10,1,14,0.02
2013-1-7,29,21,11,25,15,8,87,77,58,30.37,29.93,11,2,18,0.00
2013-1-8,41,32,14,32,25,11,87,75,57,30.32,30.14,32,6,37,0.00
2013-1-9,45,33,17,39,28,14,87,81,73,30.38,29.81,17,3,24,0.00
2013-1-10,45,40,32,32,28,22,78,63,53,30.47,29.83,31,15,42,0.00
2013-1-11,39,33,27,33,24,20,79,68,57,30.49,30.23,12,2,14,0.00
2013-1-12,46,41,38,41,35,30,84,80,67,30.20,30.07,4,1,7,0.00
2013-1-13,45,7,-52,32,-30,-100,63,48,45,30.10,29.90,17,4,20,0.00
2013-1-14,56,-4,-50,48,-17,-89,78,54,6,30.18,29.82,14,7,26,0.00
2013-1-15,39,35,29,31,26,23,85,72,61,30.27,30.18,5,0,7,0.00
2013-1-16,40,35,32,28,14,-98,84,62,50,30.23,29.71,7,2,18,0.42
2013-1-17,40,30,16,33,19,-1,83,62,43,30.10,29.71,30,8,31,0.00
2013-1-18,18,13,9,7,-2,-8,83,53,38,30.36,30.08,20,6,26,0.00
2013-1-19,39,31,13,29,24,9,84,76,65,30.31,29.81,20,6,34,0.00
2013-1-20,49,42,24,40,30,10,83,64,41,29.80,29.39,31,13,40,0.00
2013-1-21,25,22,16,17,5,0,84,50,34,30.00,29.81,25,8,34,0.00
2013-1-22,21,15,11,17,6,-8,83,67,40,29.96,29.72,16,4,28,0.00
2013-1-23,11,5,2,-9,-12,-14,50,44,38,30.02,29.96,23,14,33,0.00
2013-1-24,13,6,0,-6,-10,-14,56,47,35,30.03,29.85,27,15,35,0.00
2013-1-25,20,13,6,4,-1,-7,63,55,42,30.13,30.02,21,8,25,0.00
2013-1-26,23,17,12,5,-1,-4,62,46,33,30.05,29.91,19,7,28,0.00
2013-1-27,25,17,12,6,2,-1,58,51,42,30.35,30.05,22,10,30,0.00
2013-1-28,28,21,10,20,8,1,84,59,32,30.37,30.04,10,2,13,0.05
2013-1-29,36,28,17,30,23,12,83,80,75,30.17,30.02,3,1,8,0.00
2013-1-30,51,33,-39,35,-35,-100,81,50,34,30.11,29.42,24,12,34,0.20
2013-1-31,58,49,34,46,24,-90,80,52,41,29.40,28.81,33,22,54,0.11
2013-2-1,33,27,18,19,10,3,58,49,39,29.96,29.38,29,14,33,0.00
2013-2-2,27,21,14,20,9,2,84,60,41,30.15,29.97,19,5,28,0.02
2013-2-3,29,26,23,21,19,17,84,76,67,30.01,29.62,10,3,19,0.02
2013-2-4,28,24,19,17,10,-2,77,57,38,29.80,29.56,29,12,33,0.00
2013-2-5,25,18,14,10,2,-4,74,48,31,29.98,29.81,22,5,28,0.00
2013-2-6,38,27,14,28,16,-2,83,67,34,30.21,29.86,20,6,28,0.00
2013-2-7,19,14,10,1,-4,-9,62,44,28,30.55,30.23,16,4,23,0.00
2013-2-8,22,17,13,16,10,0,84,76,54,30.56,29.84,22,7,33,0.05
2013-2-9,20,16,13,14,12,9,85,82,70,30.02,29.60,32,17,43,0.00
2013-2-10,36,23,13,13,8,4,84,55,31,30.30,30.03,21,9,31,0.00
2013-2-11,44,26,5,32,9,-100,85,70,43,30.31,29.54,12,2,23,0.68
2013-2-12,45,39,35,35,28,17,81,63,47,29.71,29.46,23,6,26,0.00
2013-2-13,44,37,31,31,28,26,82,70,52,29.75,29.67,16,5,22,0.00
2013-2-14,41,34,24,27,23,19,82,66,46,29.96,29.67,14,4,25,0.00
2013-2-15,45,34,21,39,28,15,82,78,66,29.97,29.87,19,5,32,0.00
2013-2-16,38,33,27,33,24,17,81,70,51,29.89,29.73,14,4,23,0.04
2013-2-17,27,24,21,22,18,10,83,76,61,29.71,29.04,38,19,52,0.01
2013-2-18,33,24,16,10,6,2,59,48,37,29.94,29.32,34,21,47,0.00
2013-2-19,45,32,20,33,16,2,80,52,30,30.05,29.60,10,3,26,0.29
2013-2-20,39,10,-59,32,-4,-92,83,62,54,29.57,29.36,20,11,31,0.53
2013-2-21,36,29,25,28,20,13,79,68,58,30.04,29.57,25,12,28,0.00
2013-2-22,39,33,26,26,24,22,85,69,52,30.32,30.06,14,3,25,0.00
2013-2-23,37,32,26,31,27,22,85,82,77,30.32,30.01,13,3,21,0.00
2013-2-24,33,32,30,27,22,18,81,66,58,30.00,29.74,11,3,17,0.25
2013-2-25,40,31,23,26,22,16,85,71,40,30.19,29.84,7,2,14,0.02
2013-2-26,41,34,23,32,26,19,84,76,55,30.31,30.20,9,1,12,0.00
2013-2-27,40,35,26,34,-3,-95,83,75,65,30.22,29.67,22,8,33,0.44
2013-2-28,41,35,34,28,-57,-99,77,64,48,29.66,29.49,17,5,28,0.34
2013-3-1,36,34,32,32,30,28,87,84,78,29.60,29.47,14,3,18,0.07
2013-3-2,38,35,32,34,30,27,87,83,78,29.58,29.54,14,5,22,0.10
2013-3-3,43,38,34,36,31,26,86,76,70,29.55,29.44,14,5,18,0.00
2013-3-4,37,35,33,32,30,28,87,83,78,29.59,29.41,24,11,25,0.07
2013-3-5,45,40,36,36,34,32,87,82,67,30.06,29.60,15,6,18,0.01
2013-3-6,39,37,35,34,31,27,87,80,73,30.22,30.07,19,8,32,0.00
2013-3-7,39,36,34,28,27,26,78,71,63,30.17,30.03,20,11,33,0.00
2013-3-8,49,39,32,29,26,23,87,61,37,30.14,29.99,21,13,31,0.00
2013-3-9,45,37,31,29,27,25,80,67,51,30.33,30.14,14,5,21,0.00
2013-3-10,37,33,25,32,28,22,88,82,73,30.40,30.27,9,2,15,0.00
2013-3-11,44,41,37,39,36,32,86,85,82,30.28,30.13,20,7,25,0.00
2013-3-12,50,47,44,46,41,37,85,81,66,30.14,29.75,19,7,33,0.69
2013-3-13,49,47,37,42,-20,-100,83,58,42,29.78,29.60,23,6,36,0.25
2013-3-14,41,34,25,32,27,18,88,76,54,29.66,29.55,19,4,28,0.02
2013-3-15,36,27,20,22,14,9,80,59,36,29.72,29.56,24,9,30,0.00
2013-3-16,36,30,25,24,17,12,85,61,37,29.83,29.56,16,6,21,0.00
2013-3-17,31,26,18,17,9,1,86,52,31,30.25,29.82,27,10,34,0.00
2013-3-18,36,25,11,22,9,1,83,55,27,30.39,30.24,14,3,22,0.00
2013-3-19,34,30,26,27,24,21,86,79,62,30.26,29.59,19,6,27,0.45
2013-3-20,36,29,22,28,23,19,87,79,62,29.67,29.53,18,9,28,0.02
2013-3-21,38,33,22,28,22,15,86,67,40,29.72,29.57,12,3,19,0.00
2013-3-22,40,31,22,25,20,18,87,65,41,29.58,29.52,16,5,26,0.00
2013-3-23,41,35,28,27,23,19,70,61,49,29.58,29.40,28,14,41,0.00
2013-3-24,36,36,36,27,26,26,69,68,67,29.56,29.55,15,12,22,0.00
2013-3-25,43,36,24,34,29,21,87,75,63,29.72,29.54,13,3,20,0.00
2013-3-26,47,41,34,31,28,26,79,62,46,29.65,29.49,13,7,30,0.00
2013-3-27,43,39,32,39,33,28,85,80,71,29.79,29.64,15,5,24,0.08
2013-3-28,50,42,35,37,34,31,86,75,55,29.90,29.80,10,3,23,0.00
2013-3-29,53,46,35,39,35,31,86,68,52,29.95,29.87,16,5,22,0.00
2013-3-30,54,43,31,36,30,23,86,64,30,29.99,29.92,17,3,22,0.00
2013-3-31,50,40,26,40,28,21,87,68,32,30.08,29.88,13,4,21,0.00
2013-4-1,50,44,37,43,38,28,85,78,68,29.86,29.43,16,8,30,1.19
2013-4-2,38,34,30,25,19,14,70,54,38,29.76,29.59,18,9,30,0.00
2013-4-3,37,33,30,23,18,14,73,54,38,29.78,29.74,25,13,35,0.00
2013-4-4,48,39,33,37,21,12,79,49,24,30.14,29.94,18,13,30,0.00
2013-4-5,48,44,40,37,34,27,80,68,45,29.94,29.60,21,12,29,0.00
2013-4-6,41,38,36,29,25,21,66,59,53,29.77,29.72,21,14,25,0.00
2013-4-7,46,37,25,40,29,18,84,72,58,30.30,29.95,19,9,39,0.00
2013-4-8,60,49,38,42,38,34,85,69,42,30.10,29.85,18,8,30,0.00
2013-4-9,45,43,38,40,37,31,85,80,69,30.10,29.85,7,2,17,0.23
2013-4-10,54,45,40,47,35,26,83,67,50,29.95,29.85,13,3,18,0.09
2013-4-11,51,45,41,39,30,19,83,58,30,30.13,29.81,13,4,24,0.01
2013-4-12,42,37,34,33,25,17,84,63,42,30.22,29.87,12,6,24,0.31
2013-4-13,46,38,35,38,32,26,84,76,71,29.88,29.75,15,6,24,0.14
2013-4-14,49,43,36,42,36,28,83,77,67,30.11,29.86,7,0,17,0.22
2013-4-15,46,40,32,40,34,22,83,77,66,30.39,30.11,16,5,20,0.00
2013-4-16,50,47,42,45,40,34,83,78,67,30.39,29.92,26,12,38,0.02
2013-4-17,61,53,40,48,36,26,81,54,29,30.31,29.90,23,11,35,0.03
2013-4-18,47,42,31,40,33,25,85,70,43,30.44,30.16,16,4,24,0.00
2013-4-19,61,53,47,54,40,31,82,62,41,30.16,29.64,31,13,33,0.00
2013-4-20,59,54,48,46,36,31,80,53,39,30.06,29.53,25,10,37,0.33
2013-4-21,51,43,32,31,26,19,81,52,30,30.65,30.05,19,7,27,0.00
2013-4-22,47,38,28,37,29,24,84,71,41,30.77,30.64,14,3,20,0.00
2013-4-23,44,40,32,37,34,27,83,78,69,30.65,30.16,12,3,17,0.01
2013-4-24,58,49,44,51,40,33,79,69,56,30.17,29.71,10,3,16,0.38
2013-4-25,62,54,42,45,37,31,80,55,34,30.23,29.77,22,9,33,0.06
2013-4-26,54,45,34,37,34,26,82,65,44,30.40,30.22,16,4,22,0.00
2013-4-27,54,44,33,40,34,25,81,69,52,30.38,30.27,11,3,15,0.00
2013-4-28,60,49,34,45,36,24,81,62,45,30.30,30.22,15,4,20,0.00
2013-4-29,59,48,34,47,38,26,80,69,51,30.25,30.19,12,3,19,0.00
2013-4-30,62,50,35,47,35,24,80,59,34,30.33,30.22,14,3,18,0.00
2013-5-1,63,50,34,42,34,27,82,58,28,30.42,30.32,15,4,20,0.00
2013-5-2,58,48,37,46,39,31,81,72,50,30.49,30.38,16,4,24,0.00
2013-5-3,63,50,42,47,42,36,82,73,56,30.52,30.34,16,3,19,0.00
2013-5-4,55,45,36,43,36,25,80,70,55,30.37,30.30,15,4,22,0.00
2013-5-5,56,46,32,43,34,21,80,65,51,30.32,30.22,17,4,24,0.00
2013-5-6,58,46,33,48,35,21,79,65,48,30.25,30.14,14,4,23,0.00
2013-5-7,67,16,-59,54,5,-88,72,44,38,30.15,30.07,18,5,24,0.00
2013-5-8,69,-5,-59,60,-19,-80,72,50,38,30.22,30.12,14,4,22,0.00
2013-5-9,-42,-48,-57,-58,-62,-71,39,39,39,30.13,29.88,10,4,16,0.39
2013-5-10,65,3,-51,57,-5,-70,77,48,28,29.93,29.86,11,3,18,0.00
2013-5-11,60,42,-39,46,-38,-89,65,46,36,29.93,29.67,22,9,28,0.00
2013-5-12,63,53,-59,50,-54,-88,80,44,28,29.70,29.50,15,4,24,0.00
2013-5-13,55,50,42,46,38,33,80,65,51,29.95,29.65,26,10,36,0.00
2013-5-14,55,48,42,41,37,33,80,66,45,29.97,29.89,17,3,20,0.00
2013-5-15,59,49,35,46,34,23,80,59,32,29.97,29.65,24,7,31,0.00
2013-5-16,70,60,50,57,30,-100,75,55,37,29.72,29.52,20,6,25,0.30
2013-5-17,64,56,46,46,43,39,79,62,41,30.15,29.71,22,7,28,0.00
2013-5-18,55,49,39,45,39,27,78,69,58,30.31,30.14,15,4,21,0.00
2013-5-19,55,50,43,48,39,28,78,66,41,30.35,30.22,16,5,20,0.00
2013-5-20,69,55,51,60,16,-100,75,51,40,30.24,29.88,15,4,25,1.12
2013-5-21,56,30,-39,30,-6,-101,46,42,34,30.03,29.95,10,3,18,0.00
2013-5-22,53,51,50,40,-22,-101,64,46,40,30.05,29.89,11,4,26,0.00
2013-5-23,61,55,50,40,-52,-100,47,39,32,29.93,29.80,20,6,26,0.88
2013-5-24,60,25,-35,42,-64,-104,70,35,32,29.80,29.62,24,9,33,1.95
2013-5-25,53,31,-59,42,16,-74,69,53,41,29.79,29.62,18,6,26,0.36
2013-5-26,56,1,-59,47,-17,-91,77,54,41,29.90,29.56,17,6,28,0.46
2013-5-27,67,55,43,44,39,36,77,58,33,30.11,29.90,23,8,30,0.00
2013-5-28,68,55,40,49,37,22,74,53,34,30.19,30.10,21,5,27,0.00
2013-5-29,52,19,-38,35,16,0,65,24,39,30.18,29.97,12,2,18,0.12
2013-5-30,82,20,-48,66,5,-68,74,48,28,29.98,29.92,15,5,24,0.00
2013-5-31,86,65,-39,68,39,-100,73,54,36,30.00,29.84,17,6,26,0.00
2013-6-1,83,72,60,69,57,34,72,60,37,29.87,29.77,18,5,32,0.00
2013-6-2,76,68,61,65,56,37,73,64,38,29.77,29.67,21,8,33,0.08
2013-6-3,70,45,-39,59,25,-100,71,48,29,29.78,29.67,20,7,26,0.00
2013-6-4,65,60,52,49,42,28,70,52,37,29.98,29.70,21,7,29,0.00
2013-6-5,67,58,45,49,43,28,73,59,44,30.11,29.97,19,4,26,0.00
2013-6-6,66,58,47,52,41,25,71,54,39,30.17,30.11,16,3,18,0.00
2013-6-7,60,56,53,50,41,31,72,58,40,30.14,29.93,12,4,17,0.03
2013-6-8,67,52,-39,57,32,-59,69,47,30,29.93,29.57,18,6,25,1.30
2013-6-9,67,61,57,57,45,32,70,56,38,30.08,29.89,12,3,16,0.51
2013-6-10,69,60,53,54,43,28,71,54,36,30.18,30.03,11,2,17,0.00
2013-6-11,57,56,55,34,30,29,42,37,36,30.04,29.47,17,4,28,1.12
2013-6-12,60,46,-39,49,25,-58,69,43,31,29.68,29.44,9,2,20,0.26
2013-6-13,67,60,54,54,46,33,71,61,43,29.74,29.67,9,2,15,0.04
2013-6-14,65,59,55,54,42,29,71,54,36,29.71,29.62,10,2,17,0.03
2013-6-15,76,64,53,51,43,27,70,47,34,29.84,29.67,18,5,27,0.00
2013-6-16,75,62,49,56,45,26,70,54,40,29.85,29.67,15,3,22,0.00
2013-6-17,76,65,54,60,44,28,65,49,35,29.81,29.67,16,4,23,0.36
2013-6-18,68,46,-39,55,28,-57,67,50,35,29.92,29.80,7,1,9,0.14
2013-6-19,71,66,57,50,45,33,57,48,38,29.94,29.88,11,3,19,0.00
2013-6-20,72,62,49,54,43,26,68,51,39,30.19,30.07,15,4,19,0.00
2013-6-21,78,64,53,60,45,28,70,50,36,30.18,30.12,17,2,20,0.00
2013-6-22,76,65,57,61,48,32,67,55,37,30.16,30.07,5,1,12,0.00
2013-6-23,75,67,63,62,47,36,66,49,35,30.10,29.91,12,3,20,0.00
2013-6-24,89,78,67,70,58,38,65,51,33,29.93,29.75,20,6,25,0.04
2013-6-25,85,76,68,68,59,40,66,55,33,29.79,29.66,14,3,20,0.09
2013-6-26,77,68,60,62,42,33,61,40,33,29.84,29.64,13,2,21,1.08
2013-6-27,61,38,-39,36,14,-56,45,38,36,29.85,29.81,11,4,20,0.04
2013-6-28,-9,-34,-39,-29,-60,-100,36,35,28,29.83,29.53,22,7,25,0.92
2013-6-29,68,-21,-40,44,-40,-60,65,36,28,29.66,29.53,17,6,26,0.00
2013-6-30,74,14,-48,57,-5,-64,62,41,28,29.90,29.65,15,8,26,0.00
2013-7-1,77,-12,-50,64,-30,-69,65,40,28,30.07,29.88,12,3,18,0.14
2013-7-2,61,-38,-54,38,-39,-69,42,29,36,30.18,30.05,20,3,23,0.47
2013-7-3,75,29,-57,64,20,-71,68,47,38,30.16,30.07,11,3,14,0.00
2013-7-4,87,76,66,73,24,-100,67,51,34,30.11,30.00,18,3,19,0.01
2013-7-5,88,79,71,72,11,-103,66,50,33,30.05,29.94,17,5,23,0.15
2013-7-6,88,80,74,71,0,-104,67,49,33,29.97,29.85,20,4,26,0.00
2013-7-7,88,78,66,69,60,39,68,54,36,29.90,29.83,22,4,24,0.00
2013-7-8,74,70,64,61,52,42,66,54,34,30.03,29.84,6,1,13,0.49
2013-7-9,67,65,63,52,41,0,63,43,35,30.08,30.03,7,2,16,0.01
2013-7-10,64,63,62,38,8,0,39,8,35,30.06,29.97,11,4,15,0.00
2013-7-11,-29,-34,-36,0,0,0,0,0,100,29.76,29.70,6,2,13,0.01
2013-7-12,78,71,62,61,57,47,72,62,44,30.16,29.91,10,2,17,0.04
2013-7-13,79,70,59,63,54,36,72,57,42,30.26,30.16,10,2,16,0.00
2013-7-14,85,74,62,69,58,38,70,59,38,30.24,30.13,8,2,16,0.00
2013-7-15,91,77,66,72,59,40,69,55,38,30.13,29.99,7,1,15,0.00
2013-7-16,85,73,69,68,52,44,65,49,40,30.06,30.02,0,0,0,0.00
2013-7-17,79,73,65,66,60,50,69,64,55,30.14,29.92,15,6,24,0.00
2013-7-18,83,76,70,66,55,42,68,50,34,29.95,29.86,12,3,20,0.34
2013-7-19,86,77,69,70,58,41,66,53,35,29.94,29.59,23,6,29,0.00
2013-7-20,86,79,70,69,64,52,67,60,47,29.71,29.54,18,5,26,0.00
2013-7-21,73,68,59,60,54,42,69,60,53,29.98,29.69,14,3,17,0.00
2013-7-22,72,65,58,59,48,34,69,56,39,30.00,29.91,8,2,13,0.00
2013-7-23,64,63,61,40,28,-100,46,37,35,29.91,29.74,6,1,11,0.01
2013-7-24,78,20,-34,66,25,0,69,27,54,29.91,29.52,11,2,24,0.02
2013-7-25,70,64,58,58,51,42,73,64,44,30.07,29.91,6,1,14,0.09
2013-7-26,69,66,62,52,43,39,59,44,36,30.06,29.81,13,3,19,0.59
2013-7-27,79,70,64,64,54,40,68,57,42,30.00,29.83,14,5,19,0.01
2013-7-28,64,25,-46,40,-8,-100,41,37,36,30.00,29.98,3,0,4,0.00
2013-7-29,72,68,65,58,44,0,63,45,38,30.00,29.98,5,3,12,0.02
2013-7-30,79,44,-48,63,29,0,68,29,46,30.01,29.95,9,2,18,0.00
2013-7-31,78,69,58,60,50,33,69,52,38,30.06,29.99,16,4,27,0.00
2013-8-1,75,66,58,62,45,0,67,50,36,30.01,29.86,9,2,21,0.00
2013-8-2,70,66,64,45,19,-100,43,36,35,29.87,29.72,6,2,14,0.40
2013-8-3,73,35,-52,61,12,-100,68,49,36,29.78,29.67,14,3,20,0.06
2013-8-4,77,66,58,60,48,33,67,52,36,29.76,29.67,9,2,28,0.07
2013-8-5,72,64,56,54,50,40,70,61,52,29.97,29.76,17,7,28,0.00
2013-8-6,75,60,49,56,43,26,67,53,40,30.11,29.96,16,2,21,0.00
2013-8-7,72,63,52,60,45,27,67,52,37,30.16,30.10,15,3,19,0.00
2013-8-8,69,65,60,44,37,33,41,36,34,30.10,29.99,10,2,16,0.12
2013-8-9,70,68,66,42,22,-100,36,35,34,29.99,29.67,15,5,31,0.03
2013-8-10,79,72,63,62,-3,-103,65,46,35,29.92,29.67,20,6,28,0.01
2013-8-11,76,65,52,57,50,31,71,58,42,29.99,29.91,14,4,21,0.00
2013-8-12,78,67,56,61,48,32,67,53,38,29.95,29.86,13,3,21,0.00
2013-8-13,74,66,58,61,44,32,65,46,34,29.87,29.66,15,2,17,0.00
2013-8-14,75,1,-50,63,-13,-67,68,52,28,29.80,29.55,13,4,24,0.00
2013-8-15,72,62,56,54,50,45,73,66,52,29.96,29.79,16,4,20,0.00
2013-8-16,75,64,53,59,45,28,69,51,36,30.13,30.02,10,2,16,0.00
2013-8-17,76,65,55,60,42,0,69,46,36,30.22,30.13,11,2,19,0.00
2013-8-18,77,64,52,61,43,0,67,48,35,30.22,30.00,9,1,15,0.00
2013-8-19,83,59,-39,65,40,-56,66,50,35,30.01,29.82,15,4,20,0.00
2013-8-20,74,65,62,61,39,34,64,39,35,29.97,29.88,0,0,0,0.00
2013-8-23,76,70,60,59,53,43,69,56,39,30.06,29.70,9,4,22,0.00
2013-8-24,76,63,50,55,46,29,69,55,42,30.25,30.07,6,2,15,0.00
2013-8-25,77,63,50,57,44,26,67,49,36,30.30,30.13,10,2,18,0.00
2013-8-26,75,66,58,62,46,32,66,51,36,30.12,29.82,12,2,21,0.00
2013-8-27,80,70,62,66,48,0,66,48,33,29.85,29.79,6,1,14,0.00
2013-8-28,77,66,61,63,37,0,66,38,34,29.94,29.84,7,2,15,0.00
2013-8-29,67,67,64,48,30,0,56,28,34,30.02,29.93,6,2,16,0.00
2013-8-30,74,64,54,61,43,0,65,49,30,29.99,29.73,11,2,18,0.00
2013-8-31,78,69,65,65,39,0,64,38,34,29.77,29.72,8,1,25,0.00
2013-9-1,81,50,-36,68,30,0,66,29,38,29.88,29.72,7,1,16,0.00
2013-9-2,69,66,-50,42,0,-100,37,3,35,29.89,29.71,10,4,23,0.00
2013-9-3,-34,-38,-43,0,-4,-62,28,2,28,29.73,29.66,8,2,16,0.01
2013-9-4,-29,-42,-59,0,0,0,0,0,100,29.84,29.68,16,4,22,0.01
2013-9-5,-59,-59,-59,0,0,0,0,0,100,29.92,29.81,5,1,12,0.01
2013-9-6,0,0,0,0,0,0,0,0,100,30.17,30.07,9,2,17,0.01
2013-9-7,0,0,0,0,0,0,0,0,100,30.00,29.74,10,2,16,0.01
2013-9-8,0,0,0,0,0,0,0,0,100,30.01,29.65,16,5,31,0.00
2013-9-9,0,0,0,0,0,0,0,0,100,30.16,30.02,10,2,18,0.00
2013-9-10,0,0,0,0,0,0,0,0,100,30.08,30.02,16,5,25,0.00
2013-9-11,0,-30,-40,0,-39,-60,65,22,28,30.04,29.88,13,2,29,0.00
2013-9-12,-40,-45,-50,-60,-60,-60,28,28,28,29.98,29.64,17,4,28,0.00
2013-9-13,-40,-44,-51,-60,-60,-60,28,28,28,29.68,29.57,11,2,20,0.00
2013-9-14,-40,-48,-59,-60,-60,-60,28,28,28,29.99,29.67,10,2,16,0.00
2013-9-15,-59,-59,-59,-60,-60,-60,28,28,28,30.10,29.98,16,3,22,0.00
2013-9-16,-59,-59,-59,-60,-60,-60,28,28,28,30.24,29.95,14,4,23,0.00
2013-9-17,-59,-59,-59,-60,-60,-60,28,28,28,30.37,30.24,14,2,18,0.00
2013-9-18,-59,-59,-59,-60,-60,-60,28,28,28,30.28,30.08,13,2,19,0.00
2013-9-19,-59,-59,-59,-60,-60,-60,28,28,28,30.11,29.99,10,2,16,0.00
2013-9-20,-59,-59,-59,-60,-60,-60,28,28,28,30.08,30.01,10,2,13,0.00
2013-9-21,-39,-50,-59,-60,-60,-60,28,28,28,30.03,29.78,19,7,29,0.00
2013-9-22,-59,-59,-59,-60,-60,-60,28,28,28,29.78,29.60,23,8,35,0.00
2013-9-23,0,-44,-59,0,-45,-60,28,21,28,29.91,29.72,20,8,28,0.00
2013-9-24,0,0,0,0,0,0,0,0,100,29.90,29.81,13,4,25,0.00
2013-9-25,0,0,0,0,0,0,0,0,100,29.94,29.82,10,2,20,0.00
2013-9-26,0,0,0,0,0,0,0,0,100,30.09,29.94,18,4,23,0.00
2013-9-27,0,0,0,0,0,0,0,0,100,30.22,30.09,9,1,15,0.00
2013-9-28,0,0,0,0,0,0,0,0,100,30.31,30.22,12,2,18,0.00
2013-9-29,0,-3,-47,0,0,0,0,0,100,30.26,30.12,12,2,13,0.00
2013-9-30,-44,-53,-59,0,0,0,0,0,100,30.14,29.95,6,1,12,0.00
2013-10-1,68,-28,-59,54,14,0,96,24,61,29.95,29.80,13,2,17,0.00
2013-10-2,78,62,46,60,53,45,97,75,50,29.86,29.71,13,2,17,0.00
2013-10-3,74,58,44,53,48,42,97,73,41,30.03,29.86,10,2,18,0.00
2013-10-4,71,56,42,55,49,41,97,79,39,30.07,29.99,8,2,12,0.00
2013-10-5,60,54,45,52,47,44,96,78,57,30.13,30.06,4,1,7,0.00
2013-10-6,57,50,44,48,42,38,97,75,53,30.27,30.13,6,2,11,0.05
2013-10-7,65,59,51,64,58,47,98,96,88,30.21,29.79,18,6,32,0.63
2013-10-8,64,54,38,61,46,36,97,75,48,30.38,29.80,15,4,25,0.01
2013-10-9,60,46,33,47,39,32,98,80,47,30.47,30.35,10,2,12,0.00
2013-10-10,62,46,32,50,42,32,98,85,58,30.36,30.18,6,2,13,0.00
2013-10-11,66,53,41,56,48,40,98,87,54,30.18,30.10,4,1,6,0.00
2013-10-12,58,53,45,52,48,44,97,86,69,30.41,30.17,12,2,13,0.00
2013-10-13,58,49,37,48,43,36,97,83,57,30.46,30.38,9,2,13,0.00
2013-10-14,59,46,33,50,42,32,98,88,68,30.38,30.24,9,2,13,0.00
2013-10-15,66,56,49,54,51,48,97,84,59,30.26,30.20,6,2,13,0.00
2013-10-16,57,55,50,55,53,49,98,94,87,30.21,29.89,8,2,11,0.00
2013-10-17,63,56,49,58,54,48,99,94,83,29.89,29.72,9,3,13,0.00
2013-10-18,67,57,49,60,52,47,99,87,56,29.79,29.56,17,4,24,0.28
2013-10-19,61,53,41,51,45,39,95,77,49,29.91,29.75,11,3,20,0.00
2013-10-20,62,54,41,54,44,33,96,69,35,29.92,29.65,12,4,23,0.00
2013-10-21,60,46,32,47,39,31,97,80,43,30.05,29.92,9,2,15,0.00
2013-10-22,62,54,43,55,50,42,97,87,70,29.97,29.67,18,5,24,0.01
2013-10-23,54,43,31,43,37,31,98,83,49,29.75,29.56,9,1,11,0.01
2013-10-24,50,44,34,39,33,28,95,68,44,29.78,29.56,11,4,19,0.00
2013-10-25,51,42,31,35,32,27,85,68,49,30.06,29.78,13,4,17,0.00
2013-10-26,51,40,27,39,33,25,95,77,53,30.09,29.85,16,4,25,0.00
2013-10-27,55,46,41,44,38,30,95,74,54,29.97,29.75,10,4,19,0.12
2013-10-28,54,40,28,40,31,25,96,72,49,30.32,29.97,12,4,23,0.00
2013-10-29,47,34,25,29,25,19,93,71,32,30.43,30.32,6,2,13,0.00
2013-10-30,48,35,24,35,27,23,95,76,43,30.34,30.14,7,2,15,0.00
2013-10-31,57,43,25,56,40,23,96,92,77,30.24,29.79,13,5,23,0.38
2013-11-1,62,59,57,60,56,52,97,91,80,29.76,29.35,27,12,36,0.49
2013-11-2,63,51,38,50,45,38,98,81,50,29.73,29.52,7,2,14,0.00
2013-11-3,47,37,28,39,27,20,90,66,43,30.39,29.73,10,3,17,0.02
2013-11-4,41,30,22,24,21,18,93,70,41,30.70,30.39,6,2,18,0.00
2013-11-5,24,22,22,22,21,20,94,94,93,30.70,30.69,1,0,2,0.00
2013-11-6,53,48,29,50,44,28,96,86,78,30.41,29.97,15,8,25,0.00
2013-11-7,58,55,53,56,52,50,96,92,90,29.97,29.62,16,10,25,0.00
2013-11-8,45,40,34,28,26,25,70,58,48,29.93,29.76,13,6,19,0.41
2013-11-9,44,36,27,26,24,21,88,63,43,30.09,29.93,14,4,19,0.00
2013-11-10,44,38,29,43,36,25,97,93,85,30.07,29.69,4,1,7,0.10
2013-11-11,46,40,36,36,33,30,97,78,58,29.96,29.70,13,3,18,0.00
2013-11-12,46,34,27,34,22,16,80,62,55,30.06,29.79,17,7,22,0.00
2013-11-13,34,28,23,18,15,13,77,59,46,30.18,30.06,14,5,18,0.00
2013-11-14,47,34,23,30,25,18,93,73,46,30.07,29.95,7,2,16,0.00
2013-11-15,52,34,24,37,28,22,95,79,42,30.17,30.06,6,2,11,0.00
2013-11-16,53,36,27,45,33,25,97,89,72,30.33,30.16,4,1,7,0.00
2013-11-17,52,45,31,51,42,29,98,92,79,30.34,29.93,9,2,19,0.05
2013-11-18,58,51,38,57,49,37,98,93,75,29.93,29.46,20,7,36,0.44
2013-11-19,40,35,31,37,24,18,97,65,49,30.15,29.54,26,9,26,0.00
2013-11-20,38,31,23,20,15,12,84,54,35,30.60,30.15,15,6,21,0.00
2013-11-21,47,30,20,25,20,11,91,71,23,30.61,30.31,5,1,10,0.00
2013-11-22,40,33,25,33,28,23,93,83,56,30.30,29.75,3,1,6,0.00
2013-11-23,39,34,24,36,24,16,96,69,42,29.75,29.62,17,6,24,0.03
2013-11-24,29,23,19,21,7,4,74,51,40,29.95,29.62,21,11,33,0.00
2013-11-25,28,21,17,15,5,2,78,52,33,30.29,29.95,16,6,24,0.00
2013-11-26,33,29,22,31,26,15,96,88,76,30.29,30.15,7,2,16,0.05
2013-11-27,57,50,32,57,49,31,98,97,92,30.15,29.10,24,8,38,2.79
2013-11-28,39,30,19,36,19,8,92,64,43,30.35,29.23,21,7,30,0.00
2013-11-29,26,21,16,12,10,6,80,62,42,30.72,30.35,13,4,19,0.00
2013-11-30,34,21,11,29,13,8,91,73,41,30.80,30.43,12,2,19,0.00
2013-12-1,39,35,33,35,33,26,98,90,66,30.40,30.06,11,2,20,0.60
2013-12-2,45,41,35,43,40,34,98,96,92,30.06,29.89,7,2,14,0.45
2013-12-3,42,38,32,40,36,30,99,95,87,29.89,29.80,9,3,17,0.01
2013-12-4,41,33,25,31,28,24,95,82,63,30.20,29.83,13,3,17,0.00
2013-12-5,49,37,24,49,36,22,99,95,88,30.24,29.88,6,2,13,0.01
2013-12-6,49,43,36,49,41,29,99,91,71,30.08,29.83,6,2,12,0.09
2013-12-7,37,32,24,30,20,10,92,61,46,30.38,30.03,16,6,21,0.01
2013-12-8,27,23,18,16,11,7,82,61,43,30.57,30.38,14,3,21,0.00
2013-12-9,26,24,23,14,13,12,65,61,56,30.54,30.43,5,2,10,0.00
2013-12-10,33,28,20,32,25,14,96,89,74,29.87,29.69,8,3,14,0.00
2013-12-11,28,22,12,18,15,10,92,77,60,30.09,29.87,12,4,21,0.01
2013-12-12,21,15,8,14,3,-2,76,59,44,30.21,30.08,18,5,22,0.00
2013-12-13,24,16,5,11,3,-5,71,55,42,30.37,29.89,14,8,28,0.00
2013-12-14,16,8,0,12,-2,-7,88,61,39,30.60,30.37,13,3,14,0.00
2013-12-15,24,16,6,23,14,3,95,91,89,30.37,29.33,18,5,27,0.00
2013-12-16,20,9,-2,16,3,-5,91,77,61,30.18,29.64,11,4,23,0.00
2013-12-17,15,6,-11,12,1,-14,91,80,66,30.30,30.02,5,2,10,0.00
2013-12-18,24,15,0,19,12,-3,93,90,81,30.02,29.81,13,4,16,0.00
2013-12-19,33,20,-1,28,17,-4,96,88,78,30.07,29.89,4,1,11,0.02
2013-12-20,42,31,24,37,29,22,97,93,83,30.12,29.89,3,0,6,0.00
2013-12-21,36,34,31,36,33,30,98,97,94,29.93,29.81,11,2,14,0.13
2013-12-22,35,31,28,33,30,27,98,96,93,30.07,29.87,16,5,18,0.44
2013-12-23,33,31,28,32,30,28,98,97,97,30.09,29.95,4,2,9,0.30
2013-12-24,34,24,13,32,21,10,97,87,81,30.14,30.03,13,6,17,0.00
2013-12-25,18,11,6,13,7,2,92,83,76,30.55,30.14,15,6,20,0.00
2013-12-26,34,22,8,34,20,5,97,93,90,30.51,30.03,7,3,14,0.24
2013-12-27,30,21,9,27,19,7,93,90,84,30.18,30.09,8,2,13,0.00
2013-12-28,34,24,13,32,22,12,96,92,87,30.15,29.92,14,2,18,0.00
2013-12-29,36,27,16,35,26,14,98,95,93,30.03,29.48,7,2,14,0.65
2013-12-30,31,20,6,27,16,1,95,84,68,30.16,29.44,19,7,25,0.03
2013-12-31,8,2,-2,0,-3,-4,89,80,63,30.17,30.11,5,3,11,0.00
2014-1-2,-3,-5,-6,-7,-8,-10,85,84,83,30.21,29.98,18,11,24,0.00